DW7394 Weather Reports


time (UTC)temp
C
wind
direction
speed
KPH
gust
KPH
rain 1hr
cm
rain 24hr
cm
rain mn
cm
humidity
%
barometer
mb
20260503224553 13 227 22.5 43.5 0.00 0.00 0.00 46 1012.3
20260503224053 13 248 20.9 43.5 0.00 0.00 0.00 47 1012.3
20260503223552 13 212 20.9 43.5 0.00 0.00 0.00 46 1012.4
20260503223053 14 225 20.9 43.5 0.00 0.00 0.00 46 1012.4
20260503222549 14 274 19.3 38.6 0.00 0.00 0.00 47 1012.5
20260503222053 14 234 19.3 41.8 0.00 0.00 0.00 47 1012.4
20260503221553 14 244 25.7 49.9 0.00 0.00 0.00 47 1012.4
20260503221052 14 194 14.5 49.9 0.00 0.00 0.00 47 1012.4
20260503220549 14 236 20.9 43.5 0.00 0.00 0.00 47 1012.5
20260503220051 14 236 20.9 43.5 0.00 0.00 0.00 47 1012.5
20260503215548 14 228 22.5 40.2 0.00 0.00 0.00 46 1012.5
20260503215048 14 253 19.3 43.5 0.00 0.00 0.00 46 1012.6
20260503214548 14 207 16.1 46.7 0.00 0.00 0.00 47 1012.5
20260503214049 14 237 20.9 49.9 0.00 0.00 0.00 47 1012.6
20260503213548 14 227 24.1 49.9 0.00 0.00 0.00 47 1012.7
20260503213047 14 216 24.1 41.8 0.00 0.00 0.00 47 1012.6
20260503212547 14 226 22.5 56.3 0.00 0.00 0.00 46 1012.6
20260503212047 14 233 25.7 56.3 0.00 0.00 0.00 46 1012.5
20260503211546 15 214 19.3 49.9 0.00 0.00 0.00 45 1012.6
20260503211049 15 240 29.0 45.1 0.00 0.00 0.00 46 1012.6
20260503210546 15 288 24.1 43.5 0.00 0.00 0.00 45 1012.5
20260503210045 15 224 19.3 45.1 0.00 0.00 0.00 45 1012.5
20260503205545 15 247 29.0 45.1 0.00 0.00 0.00 44 1012.5
20260503205045 15 253 17.7 43.5 0.00 0.00 0.00 45 1012.5
20260503204547 15 216 25.7 43.5 0.00 0.00 0.00 44 1012.5
20260503204044 15 213 17.7 41.8 0.00 0.00 0.00 45 1012.6
20260503203544 15 183 22.5 38.6 0.00 0.00 0.00 44 1012.6
20260503203042 15 205 17.7 45.1 0.00 0.00 0.00 43 1012.5
20260503202542 15 209 27.4 45.1 0.00 0.00 0.00 42 1012.6
20260503202041 15 235 16.1 46.7 0.00 0.00 0.00 43 1012.7
20260503201539 15 264 25.7 46.7 0.00 0.00 0.00 43 1012.8
20260503201040 16 227 25.7 41.8 0.00 0.00 0.00 44 1012.8
20260503200538 15 259 19.3 59.5 0.00 0.00 0.00 46 1012.9
20260503200038 15 254 30.6 59.5 0.00 0.00 0.00 45 1013.1
20260503195537 15 202 30.6 49.9 0.00 0.00 0.00 45 1013.2
20260503195036 15 201 29.0 43.5 0.00 0.00 0.00 47 1013.3
20260503194542 15 242 17.7 46.7 0.00 0.00 0.00 47 1013.3
20260503194035 15 259 12.9 53.1 0.00 0.00 0.00 46 1013.5
20260503193534 15 236 24.1 53.1 0.00 0.00 0.00 45 1013.6
20260503193040 15 213 24.1 49.9 0.00 0.00 0.00 45 1013.5
20260503192532 15 204 29.0 49.9 0.00 0.00 0.00 44 1013.7
20260503192031 15 218 27.4 51.5 0.00 0.00 0.00 44 1013.8
20260503191531 15 188 30.6 51.5 0.00 0.00 0.00 46 1013.8
20260503191033 15 215 27.4 45.1 0.00 0.00 0.00 44 1014.0
20260503190530 16 250 16.1 59.5 0.00 0.00 0.00 44 1013.9
20260503190039 16 252 32.2 59.5 0.00 0.00 0.00 44 1014.0
20260503185529 16 217 12.9 45.1 0.00 0.00 0.00 42 1014.1
20260503185031 16 216 22.5 46.7 0.00 0.00 0.00 44 1014.1
20260503184527 16 235 24.1 46.7 0.00 0.00 0.00 44 1014.2
20260503184026 16 224 17.7 53.1 0.00 0.00 0.00 45 1014.3
20260503183525 16 225 33.8 53.1 0.00 0.00 0.00 45 1014.5
20260503183024 15 222 16.1 49.9 0.00 0.00 0.00 46 1014.4
20260503182531 15 199 20.9 49.9 0.00 0.00 0.00 45 1014.4
20260503182026 15 252 24.1 49.9 0.00 0.00 0.00 46 1014.5
20260503181525 15 231 16.1 48.3 0.00 0.00 0.00 45 1014.5
20260503181023 15 331 16.1 46.7 0.00 0.00 0.00 45 1014.5
20260503180522 16 209 22.5 46.7 0.00 0.00 0.00 47 1014.7
20260503180023 16 228 24.1 45.1 0.00 0.00 0.00 45 1014.7
20260503175521 16 224 20.9 40.2 0.00 0.00 0.00 47 1014.8
20260503175022 16 264 20.9 40.2 0.00 0.00 0.00 49 1015.0
20260503174518 16 211 20.9 46.7 0.00 0.00 0.00 47 1015.0
20260503174018 15 224 27.4 46.7 0.00 0.00 0.00 47 1015.0
20260503173518 15 236 14.5 41.8 0.00 0.00 0.00 48 1015.0
20260503173020 15 230 16.1 35.4 0.00 0.00 0.00 49 1015.1
20260503172514 15 339 14.5 38.6 0.00 0.00 0.00 47 1015.2
20260503172014 15 269 19.3 41.8 0.00 0.00 0.00 49 1015.3
20260503171514 15 325 19.3 41.8 0.00 0.00 0.00 49 1015.4
20260503171113 15 214 17.7 40.2 0.00 0.00 0.00 49 1015.3
20260503170511 15 208 22.5 41.8 0.00 0.00 0.00 50 1015.4
20260503150544 12 217 22.5 40.2 0.00 0.00 0.00 51 1016.4
20260503131013 6 222 14.5 27.4 0.00 0.00 0.00 60 1017.2
20260503130512 6 264 12.9 27.4 0.00 0.00 0.00 61 1017.2
20260503110553 2 222 12.9 20.9 0.00 0.08 0.00 72 1016.7
20260503081545 2 203 9.7 22.5 0.00 0.33 0.00 75 1016.6
20260503081035 2 225 8.0 19.3 0.00 0.33 0.00 75 1016.6
20260503080539 2 233 8.0 17.7 0.00 0.33 0.00 75 1016.6
20260503072530 2 213 8.0 16.1 0.00 0.33 0.00 75 1016.6
20260503072033 2 228 9.7 16.1 0.00 0.33 0.00 75 1016.6
20260503071629 2 245 8.0 17.7 0.00 0.33 0.00 75 1016.6
20260503071028 2 240 9.7 19.3 0.00 0.33 0.00 75 1016.6
20260503070529 2 228 9.7 20.9 0.00 0.33 0.00 76 1016.6
20260503055016 2 182 6.4 11.3 0.00 0.43 0.00 75 1016.8
20260503054527 2 211 6.4 12.9 0.00 0.43 0.00 75 1016.9
20260503054018 2 199 4.8 12.9 0.00 0.43 0.00 75 1016.9
20260503053515 2 194 6.4 12.9 0.00 0.43 0.00 75 1016.9
20260503053014 2 216 6.4 12.9 0.00 0.43 0.00 75 1016.9
20260503052512 2 220 8.0 12.9 0.00 0.43 0.00 74 1016.9
20260503052013 2 239 4.8 12.9 0.00 0.43 0.00 74 1016.9
20260503051511 2 185 6.4 12.9 0.00 0.43 0.00 74 1017.0
20260503051009 2 218 4.8 14.5 0.00 0.43 0.00 74 1017.0
20260503050508 3 240 4.8 14.5 0.00 0.43 0.00 73 1017.0
20260503050007 3 208 4.8 9.7 0.00 0.43 0.00 73 1017.0
20260503045506 3 218 6.4 11.3 0.00 0.61 0.00 73 1017.1
20260503045005 3 192 6.4 11.3 0.00 0.61 0.00 73 1017.1
20260503044511 3 234 4.8 9.7 0.00 0.61 0.00 73 1017.1
20260503044004 3 211 4.8 11.3 0.00 0.61 0.00 72 1017.1
20260503043503 3 218 4.8 14.5 0.00 0.61 0.00 72 1017.1
20260503043002 3 213 8.0 14.5 0.00 0.61 0.00 72 1017.0
20260503042503 3 221 4.8 14.5 0.00 0.61 0.00 71 1017.1
20260503042100 3 196 6.4 12.9 0.00 0.61 0.00 71 1017.1
20260503041600 3 196 6.4 12.9 0.00 0.61 0.00 71 1017.1
20260503041058 3 218 3.2 12.9 0.00 0.61 0.00 71 1017.2
20260503040557 4 201 6.4 11.3 0.00 0.61 0.00 71 1017.2
20260503040100 4 201 6.4 11.3 0.00 0.61 0.00 71 1017.2
20260503035658 4 202 6.4 11.3 0.00 0.66 0.61 71 1017.3
20260503035056 4 210 4.8 11.3 0.00 0.66 0.61 70 1017.2
20260503034609 4 188 4.8 12.9 0.00 0.66 0.61 70 1017.2
20260503034056 4 183 6.4 12.9 0.00 0.66 0.61 70 1017.3
20260503033557 4 173 4.8 12.9 0.00 0.66 0.61 69 1017.3
20260503033058 4 173 6.4 14.5 0.00 0.66 0.61 69 1017.3
20260503032554 4 208 6.4 14.5 0.00 0.66 0.61 69 1017.3
20260503032057 4 192 4.8 11.3 0.00 0.66 0.61 69 1017.4
20260503031556 4 203 6.4 11.3 0.00 0.66 0.61 69 1017.4
20260503031054 4 218 3.2 9.7 0.00 0.66 0.61 69 1017.5
20260503030553 4 210 3.2 8.0 0.00 0.66 0.61 69 1017.5
20260503030053 4 188 3.2 8.0 0.00 0.66 0.61 69 1017.4
20260503025553 4 185 4.8 8.0 0.00 0.66 0.61 69 1017.4
20260503025053 4 188 3.2 8.0 0.00 0.66 0.61 69 1017.5
20260503024554 4 213 3.2 9.7 0.00 0.66 0.61 69 1017.5
20260503024054 4 218 4.8 8.0 0.00 0.66 0.61 69 1017.6
20260503023553 4 223 3.2 6.4 0.00 0.66 0.61 69 1017.6
20260503023053 4 205 3.2 6.4 0.00 0.66 0.61 69 1017.7
20260503022552 4 192 3.2 6.4 0.00 0.66 0.61 68 1017.7
20260503022055 4 205 3.2 4.8 0.00 0.66 0.61 68 1017.7
20260503021552 4 196 3.2 4.8 0.00 0.66 0.61 68 1017.6
20260503021055 4 156 1.6 4.8 0.00 0.66 0.61 68 1017.7
20260503020552 4 181 3.2 4.8 0.00 0.66 0.61 68 1017.6
20260503020055 4 192 1.6 3.2 0.00 0.66 0.61 68 1017.6
20260503015551 4 173 1.6 4.8 0.00 0.66 0.61 68 1017.6
20260503015054 4 196 1.6 4.8 0.00 0.66 0.61 67 1017.6
20260503014604 4 218 1.6 3.2 0.00 0.66 0.61 67 1017.6
20260503014051 4 218 1.6 3.2 0.00 0.66 0.61 67 1017.5
20260503013551 4 188 0.0 3.2 0.00 0.66 0.61 67 1017.6
20260503013051 4 201 1.6 3.2 0.00 0.66 0.61 66 1017.6
20260503012552 4 173 1.6 3.2 0.00 0.66 0.61 66 1017.5
20260503012053 5 112 0.0 3.2 0.00 0.66 0.61 66 1017.5
20260503011551 5 147 0.0 3.2 0.00 0.66 0.61 65 1017.5
20260503011052 5 173 0.0 3.2 0.00 0.66 0.61 65 1017.5
20260503010549 5 147 0.0 3.2 0.00 0.66 0.61 64 1017.5
20260503010051 5 84 0.0 3.2 0.00 0.66 0.61 64 1017.4
20260503005550 5 130 0.0 3.2 0.00 0.66 0.61 64 1017.4
20260503005049 5 309 0.0 3.2 0.00 0.66 0.61 64 1017.5
20260503004549 5 173 0.0 3.2 0.00 0.66 0.61 64 1017.4
20260503004049 5 130 0.0 3.2 0.00 0.66 0.61 64 1017.4
20260503003548 5 41 0.0 4.8 0.00 0.66 0.61 64 1017.4
20260503003055 5 309 1.6 6.4 0.00 0.66 0.61 64 1017.4
20260503002547 5 356 1.6 6.4 0.00 0.66 0.61 64 1017.4
20260503002047 5 335 1.6 4.8 0.00 0.66 0.61 63 1017.4
20260503001606 5 309 1.6 4.8 0.00 0.66 0.61 63 1017.3
20260503001047 5 309 1.6 4.8 0.00 0.66 0.61 63 1017.4
20260503000546 5 326 1.6 4.8 0.00 0.66 0.61 62 1017.4
20260503000050 5 4 1.6 9.7 0.00 0.66 0.61 62 1017.3
20260502235546 5 335 3.2 9.7 0.00 0.66 0.61 62 1017.3
20260502235146 5 343 4.8 6.4 0.00 0.66 0.61 62 1017.3
20260502234549 5 326 1.6 9.7 0.00 0.66 0.61 61 1017.3
20260502234046 5 335 4.8 9.7 0.00 0.66 0.61 60 1017.2
20260502233546 5 15 3.2 9.7 0.00 0.66 0.61 60 1017.2
20260502233045 5 13 3.2 9.7 0.00 0.66 0.61 60 1017.2
20260502232544 5 331 1.6 9.7 0.00 0.66 0.61 60 1017.3
20260502232044 5 15 3.2 9.7 0.00 0.66 0.61 60 1017.3
20260502231545 5 330 4.8 12.9 0.00 0.66 0.61 60 1017.3
20260502231044 5 312 1.6 20.9 0.00 0.66 0.61 59 1017.3
20260502230544 5 329 8.0 20.9 0.00 0.66 0.61 59 1017.4
20260502230044 5 326 4.8 16.1 0.00 0.66 0.61 59 1017.4
20260502225543 5 326 11.3 16.1 0.00 0.66 0.61 59 1017.4
20260502225043 5 306 4.8 17.7 0.00 0.66 0.61 59 1017.4